This demonstration page uses our WeatherBlox Daily Observations layout. Learn more.

Left ArrowRight Arrow

38.89511, -77.03637

Hourly Observations for June 15, 2022

Temp ( °F °C ) Dew Point ( °F °C ) Humidity (%) Winds ( mph kmh ) Pressure ( in mb ) Visibility ( mi km ) Precip ( " mm )
12:52 am 00:52 Partly Cloudy 75 23.9 67 19.4 76 76 N 3 6 29.99 1016 10 16 0.00 0.00
1:52 am 01:52 Partly Cloudy 73 22.8 66 18.9 79 79 W 3 6 29.99 1016 10 16 0.00 0.00
2:52 am 02:52 Partly Cloudy 71 21.7 66 18.9 84 84 WSW 3 6 30.00 1016 10 16 0.00 0.00
3:52 am 03:52 Partly Cloudy 71 21.7 66 18.9 84 84 W 3 6 30.01 1016 10 16 0.00 0.00
4:52 am 04:52 Mostly Clear 70 21.1 66 18.9 87 87 N 5 7 30.01 1016 10 16 0.00 0.00
5:52 am 05:52 Mostly Sunny 71 21.7 66 18.9 84 84 Calm 30.02 1017 10 16 0.00 0.00
6:52 am 06:52 Mostly Sunny 74 23.3 67 19.4 79 79 Calm 30.03 1017 10 16 0.00 0.00
7:52 am 07:52 Mostly Sunny 75 23.9 68 20 79 79 ESE 3 6 30.04 1017 7 11 0.00 0.00
8:52 am 08:52 Mostly Sunny 78 25.6 68 20 71 71 E 3 6 30.06 1018 10 16 0.00 0.00
9:52 am 09:52 Mostly Sunny 83 28.3 62 16.7 49 49 Calm 30.07 1018 10 16 0.00 0.00
10:52 am 10:52 Mostly Sunny 84 28.9 62 16.7 48 48 ESE 3 6 30.08 1019 10 16 0.00 0.00
11:52 am 11:52 Partly Cloudy 85 29.4 60 15.6 43 43 SE 3 6 30.09 1019 10 16 0.00 0.00
12:52 pm 12:52 Sunny 86 30 62 16.7 45 45 S 8 13 30.09 1019 10 16 0.00 0.00
1:52 pm 13:52 Sunny 88 31.1 64 17.8 45 45 S 9 15 30.08 1019 10 16 0.00 0.00
2:52 pm 14:52 Mostly Cloudy 88 31.1 65 18.3 46 46 S 8 13 30.07 1018 10 16 0.00 0.00
3:52 pm 15:52 Mostly Cloudy 89 31.7 65 18.3 45 45 S 8 13 30.06 1018 10 16 0.00 0.00
4:30 pm 16:30 Mostly Cloudy 88 31.1 69 20.6 54 54 S 12 19 30.05 1017 10 16 0.00 0.00
4:52 pm 16:52 Mostly Cloudy 88 31.1 68 20 52 52 S 12 19 30.06 1018 10 16 0.00 0.00
5:52 pm 17:52 Mostly Cloudy 87 30.6 69 20.6 55 55 S 13 20 30.05 1018 10 16 0.00 0.00
6:52 pm 18:52 Mostly Cloudy 86 30 69 20.6 57 57 S 12 19 30.05 1018 10 16 0.00 0.00
7:52 pm 19:52 Mostly Cloudy 84 28.9 70 21.1 63 63 S 10 17 30.05 1018 10 16 0.00 0.00
8:52 pm 20:52 Mostly Cloudy 82 27.8 68 20 63 63 S 9 15 30.06 1018 10 16 0.00 0.00
9:52 pm 21:52 Mostly Cloudy 82 27.8 66 18.9 58 58 S 13 20 30.07 1018 10 16 0.00 0.00
10:52 pm 22:52 Cloudy 80 26.7 66 18.9 62 62 SSE 12 19 30.08 1019 10 16 0.00 0.00
11:52 pm 23:52 Cloudy 78 25.6 64 17.8 62 62 SSE 14 22 30.10 1019 10 16 0.00 0.00

Powered by AerisWeather